Location: Oshawa
(43.9000°N, 78.8670°W)
Time: 13:34:14
(UTC-05:00)

OTV 5 (USA 277) - Visible Passes

Search period start: 22 February 2018 00:00
Search period end: 04 March 2018 00:00
Orbit: 404 x 417 km, 43.0° (Epoch: 07 September)

Date Brightness Start Highest point End Pass type
(mag) Time Alt. Az. Time Alt. Az. Time Alt. Az.
22 Feb ? 05:19:05 20° S 05:20:01 22° SSE 05:22:39 10° E visible
23 Feb ? 04:30:34 13° ESE 04:30:34 13° ESE 04:31:13 10° ESE visible
23 Feb ? 06:03:20 14° WSW 06:05:58 52° SSE 06:09:12 10° E visible
24 Feb ? 05:14:44 40° S 05:14:58 40° SSE 05:18:06 10° E visible
25 Feb ? 04:26:04 16° ESE 04:26:04 16° ESE 04:26:57 10° E visible
25 Feb ? 05:58:49 18° WSW 06:01:05 73° S 06:04:22 10° E visible
26 Feb ? 05:10:07 64° SSE 05:10:07 64° SSE 05:13:19 10° E visible
27 Feb ? 04:21:23 17° E 04:21:23 17° E 04:22:15 10° E visible
27 Feb ? 05:54:08 20° W 05:56:14 77° S 05:59:32 10° E visible
28 Feb ? 05:05:23 73° SE 05:05:23 73° SE 05:08:29 10° E visible
01 Mar ? 04:16:38 16° E 04:16:38 16° E 04:17:25 10° E visible
01 Mar ? 05:49:24 21° W 05:51:23 61° S 05:54:38 10° ESE visible
02 Mar ? 05:00:41 63° SE 05:00:41 63° SE 05:03:37 10° ESE visible
03 Mar ? 04:12:00 14° E 04:12:00 14° E 04:12:35 10° E visible
03 Mar ? 05:44:46 21° WSW 05:46:26 38° SSW 05:49:31 10° SE visible
